This is the latest recevied weather packets stored in our database for station/object EA7OC-10. If no packets are shown the sender has not sent any weather packets the latest 10 day(s).
| Time | Temp. | Humidity | Pressure | Rain* | Wind** | Luminosity | Snow |
|---|---|---|---|---|---|---|---|
| 1777778862 | 21.11° C | 36% | 1015.8 hPa | - | - | - | - |
| 1777777962 | 21.67° C | 36% | 1015.9 hPa | - | - | - | - |
| 1777777062 | 21.67° C | 36% | 1015.9 hPa | - | - | - | - |
| 1777776161 | 21.11° C | 36% | 1015.9 hPa | - | - | - | - |
| 1777775261 | 21.11° C | 36% | 1016.2 hPa | - | - | - | - |
| 1777774361 | 21.67° C | 36% | 1016.1 hPa | - | - | - | - |
| 1777773461 | 21.67° C | 36% | 1016 hPa | - | - | - | - |
| 1777768061 | 21.67° C | 36% | 1016.4 hPa | - | - | - | - |
| 1777764460 | 21.67° C | 35% | 1016.4 hPa | - | - | - | - |
| 1777762660 | 22.22° C | 34% | 1016.4 hPa | - | - | - | - |
| 1777760859 | 22.22° C | 34% | 1016.3 hPa | - | - | - | - |
| 1777759959 | 22.78° C | 34% | 1016.4 hPa | - | - | - | - |
| 1777752124 | 24.44° C | 32% | 1015.4 hPa | - | - | - | - |
| 1777747263 | 26.67° C | 32% | 1015.2 hPa | - | - | - | - |
| 1777746363 | 27.22° C | 32% | 1015.3 hPa | - | - | - | - |
| 1777745463 | 28.33° C | 32% | 1015.3 hPa | - | - | - | - |
| 1777742758 | 29.44° C | 32% | 1015.5 hPa | - | - | - | - |
| 1777741858 | 30.56° C | 32% | 1015.5 hPa | - | - | - | - |
| 1777740958 | 32.22° C | 32% | 1015.5 hPa | - | - | - | - |
| 1777739157 | 31.67° C | 33% | 1015.6 hPa | - | - | - | - |
| 1777738257 | 30° C | 33% | 1015.7 hPa | - | - | - | - |
| 1777737357 | 29.44° C | 33% | 1015.7 hPa | - | - | - | - |
| 1777736456 | 29.44° C | 32% | 1015.8 hPa | - | - | - | - |
| 1777735554 | 29.44° C | 32% | 1015.8 hPa | - | - | - | - |
| 1777734654 | 30.56° C | 33% | 1016 hPa | - | - | - | - |
* Rain since midnight (hover to see other rain measurements)
** Current wind speed in m/s (hover to see current wind gust speed)